User: anonymous   Login
Location: Unspecified
(0.0000°N, 0.0000°E)
Time: 02:00:31
(UTC+00:00)
Language:

STARLINK-35990 - Orbit

View from above orbital plane
View from above orbital plane
View from above satellite
View from above satellite

Ground track
Ground track

The orbit is defined by the following mean orbital elements,

1 66792U          26145.40001076 +.00000000 +00000-0 +81969-3 0 00005
2 66792  43.0002  40.9156 0000841 279.4630  80.6127 15.27591807    09
Epoch (UTC): 25 May 2026 09:36:00
Eccentricity: 0.0000841
inclination: 43.0002°
perigee height: 482 km
apogee height: 484 km
right ascension of ascending node: 40.9156°
argument of perigee: 279.4630°
revolutions per day: 15.27591807
mean anomaly at epoch: 80.6127°

The dashed part of the orbit path shows where the satellite is in the earth's shadow,  

DLR